Regional Weather Roundup
Issued by NWS

Home | Current Version | Previous Version | Text Only | Print | Product List | Glossary On
Versions: 1 2 3 4 5 6 7 8 9 10 11 12 13 14 15 16 17 18 19 20 21 22 23 24 25 26 27 28 29 30 31 32 33 34 35 36 37 38 39 40 41 42 43 44 45 46 47 48 49 50
000
ASUS46 KLOX 230012
RWRCA

SOUTHERN CALIFORNIA WEATHER ROUNDUP
NATIONAL WEATHER SERVICE OXNARD CALIFORNIA
500 PM PDT WED OCT 22 2014

NOTE: "FAIR" INDICATES FEW OR NO CLOUDS BELOW 12,000 FEET WITH NO
SIGNIFICANT WEATHER AND/OR OBSTRUCTIONS TO VISIBILITY.

  -  STATIONS PRECEEDED BY AN ASTERISK (*) ARE NOT NWS OR FAA
     STATIONS AND ARE NOT SUBJECT TO NWS AND FAA QUALITY CONTROL.

CAZ041-042-087-230100-
LA AND ORANGE COUNTY COASTAL AREAS


CITY           SKY/WX    TMP DP  RH WIND       PRES   REMARKS
L.A. DOWNTOWN  SUNNY     77  55  46 VRB5      29.88F
L.A. AIRPORT   MOSUNNY   72  65  78 W13       29.89F
LONG BEACH     SUNNY     78  61  55 NW9       29.88S

CITY           SKY/WX    TMP DP  RH WIND       PRES   REMARKS
AVALON           N/A     72 N/A N/A E1          N/A
FULLERTON      SUNNY     81  58  45 S9        29.87S
*GETTY CENTER    N/A     77  54  44 SW7         N/A
HAWTHORNE      SUNNY     76  62  62 W10       29.89F
*LEO CARRILLO    N/A     72  62  70 W14         N/A
*LOS ALAMITOS  MOSUNNY   77  61  57 S7        29.88S
*REDONDO BEACH   N/A     73  65  76 CALM      29.88F
SANTA ANA      PTSUNNY   78  60  53 SW8       29.89S
STA MONICA APT SUNNY     74  61  63 SW6       29.89F
*STA MON PIER    N/A     70  65  85 S9        29.88F
TORRANCE       MOSUNNY   75  61  60 NW12      29.90S
*UCLA            N/A     73  55  53 SW6       29.87S

$$

CAZ547-548-048-230100-
LA COUNTY VALLEYS AND INLAND EMPIRE


CITY           SKY/WX    TMP DP  RH WIND       PRES   REMARKS
BURBANK        SUNNY     82  48  30 S7        29.89S
VAN NUYS       SUNNY     86  41  20 SE9       29.88S

CITY           SKY/WX    TMP DP  RH WIND       PRES   REMARKS
CORONA AIRPORT CLEAR     83  53  35 W10       29.88F
*CHATSWORTH      N/A     83  52  33 N6        29.85F
CHINO          PTSUNNY   85  53  33 SW12      29.89S
*CLAREMONT       N/A     84  39  20 SW7         N/A
MARCH AFB      SUNNY     86  34  15 NW10      29.92S
*NORTHRIDGE      N/A     86  37  17 W3          N/A
ONTARIO        PTSUNNY   86  48  26 W12       29.89S
*PASADENA        N/A     82  57  42 E2          N/A
POMONA         SUNNY     84  46  26 SW8       29.93S
RIVERSIDE      SUNNY     85  51  31 W9        29.89S
SAN BERNARDINO PTSUNNY   86  32  14 W10       29.89S
*SAN GABRIEL     N/A     81  53  37 CALM      29.83S
*SAUGUS          N/A     89  34  14 S5          N/A
*WHITEMAN AP   PTSUNNY   84  45  24 E5        29.92F
*WHITTIER HILL   N/A     82  62  50 SW7         N/A
*WOODLAND HILL   N/A     86  45  23 SW5         N/A

$$

CAZ054-055-230100-
LA AND SAN BERNARDINO COUNTY MOUNTAINS


CITY           SKY/WX    TMP DP  RH WIND       PRES   REMARKS
*ACTON           N/A     82  30  15 N8          N/A
*BIG BEAR AIRP CLEAR     64  25  22 E5        30.22S
*BIG PINES       N/A     66  26  22 CALM        N/A
*CHILAO          N/A     74  33  22 SW7         N/A
MT WILSON NWS    N/A     73  34  23 W1          N/A
SANDBERG       SUNNY     74  27  17 NE8       30.11S
*WARM SPRINGS    N/A     72  28  19 NE14        N/A

$$

CAZ028-029-059-060-099-230100-
ANTELOPE VALLEY AND SURROUNDING AREAS


CITY           SKY/WX    TMP DP  RH WIND       PRES   REMARKS
LANCASTER      SUNNY     80  30  16 CALM      29.99F
PALMDALE       SUNNY     79  31  17 CALM      30.00F
*POPPY PARK      N/A     80  31  17 E5          N/A

CITY           SKY/WX    TMP DP  RH WIND       PRES   REMARKS
29 PALMS       MOSUNNY   85  35  16 CALM      30.02F
BARSTOW/DAGGET SUNNY     82  26  13 E5        29.97F
BISHOP         SUNNY     78  22  12 S16G22    30.02S
CHINA LAKE     PTSUNNY   83  27  13 CALM      29.98F
EDWARDS AFB    PTSUNNY   79  30  16 N2        29.97F
MOJAVE         FAIR      79  28  15 CALM      30.02F
NEEDLES        CLEAR     91  42  18 E6        29.90S
VICTORVILLE    SUNNY     79  27  14 N3        30.02S

$$

CAZ039-040-230100-
VENTURA AND SANTA BARBARA COUNTY COAST


CITY           SKY/WX    TMP DP  RH WIND       PRES   REMARKS
CAMARILLO      SUNNY     74  57  55 SW7       29.90S
NWS OXNARD       N/A     75  58  55 W2        29.90S
OXNARD AIRPORT SUNNY     72  60  66 W10       29.90S
*POINT MUGU    MOSUNNY   74  60  61 W7        29.90F
SBA APT/GOLETA SUNNY     78  48  34 W7        29.89S
*SANTA BARBARA   N/A     81  46  29 NE3       29.96F
*VENTURA         N/A     74  56  52 SW3       29.93S

$$

CAZ044-045-230100-
VENTURA COUNTY VALLEYS


CITY           SKY/WX    TMP DP  RH WIND       PRES   REMARKS
*SIMI VALLEY     N/A     80  52  38 W5        29.86S
*OJAI            N/A     83  53  34 CALM      29.84R
*FILLMORE        N/A     79  57  45 CALM      29.80S

$$

CAZ053-230100-
VENTURA COUNTY MOUNTAINS


CITY           SKY/WX    TMP DP  RH WIND       PRES   REMARKS
*LOCKWOOD VLY    N/A     72  30  21 MISG        N/A
*ROSE VALLEY     N/A     81  45  28 MISG        N/A

$$

CAZ034-035-036-230100-
CENTRAL COAST AND SANTA YNEZ VALLEY


CITY           SKY/WX    TMP DP  RH WIND       PRES   REMARKS
SAN LUIS OBISP SUNNY     75  44  33 NW20      29.92S
SANTA MARIA    SUNNY     76  50  40 W12       29.94R

CITY           SKY/WX    TMP DP  RH WIND       PRES   REMARKS
*CAL POLY SLO    N/A     82  45  26 N10G16      N/A
*LOMPOC        SUNNY     70  54  56 W14       29.95R
*PISMO BEACH     N/A     83  42  23 N3        29.90F
*SANTA YNEZ    FAIR      79  45  29 W15       29.92S

$$

CAZ037-038-051-230100-
SAN LUIS OBISPO COUNTY INTERIOR AND CUYAMA VALLEY


CITY           SKY/WX    TMP DP  RH WIND       PRES   REMARKS
*CUYAMA          N/A     69  42  37 N7        29.99S
PASO ROBLES    SUNNY     80  36  20 NW5       29.97F

$$

CAZ032-033-061-230100-
SOUTHERN DESERTS


CITY           SKY/WX    TMP DP  RH WIND       PRES   REMARKS
BLYTHE         SUNNY     92  43  18 W5        29.86F
IMPERIAL       SUNNY     93  47  20 NE5       29.83S
PALM SPRINGS   MOSUNNY   93  28  10 E5        29.88S
THERMAL        SUNNY     91  44  19 SE6       29.82F

$$

ELSEWHERE ACROSS THE WESTERN UNITED STATES AND MEXICO


CITY           SKY/WX    TMP DP  RH WIND       PRES   REMARKS
DENVER, CO     MOCLDY    63  37  38 CALM      30.10R
GRAND CANYON,  PTCLDY    65  31  28 NW3       30.22S
HONOLULU, HI   PTSUNNY   81  75  83 NW7       29.97F
KAHULUI, MAUI  CLOUDY    79  75  89 NE7       29.98F
LAKE TAHOE, CA SUNNY     61  27  27 SW9       30.15S
LAS VEGAS, NV  PTCLDY    83  27  13 CALM      29.95F
MAMMOTH LAKES, FAIR      64  21  19 SE13      30.19S
MEXICO CITY, M MOCLDY    68  50  52 N17       30.22R
PHOENIX, AZ    PTCLDY    90  46  21 MISG      29.88F
PORTLAND, OR   LGT RAIN  56  55  97 SE6       29.73R FOG
RENO, NV       PTSUNNY   70  28  21 E3        30.04F
SALT LAKE CITY MOCLDY    60  31  33 N9        30.14F
SAN DIEGO, CA  PTSUNNY   75  62  64 W7        29.91S
SAN FRANCISCO, MOSUNNY   72  57  59 W15       30.02S
SAN JOSE, CA   MOSUNNY   72  46  39 NW8       30.00F
SEATTLE, WA    LGT RAIN  56  53  90 SE15G22   29.63F
TIJUANA, MEX   MOSUNNY   75  54  46 NW7       29.93S

$$

STATION/POSITION TIME  TEMP    WIND        PRES    VSBY  WAVE
                       AIR SEA DIR/SP/G                  HT/PER
                 (UTC) (F)     (DEG/KT/KT) (MB)    (MI)  (FT/S)
POINT ARGUELLO B NOT AVBL
WEST SANTA BARBA 0000   66 66  320/ 19/ 23 1011.9F         8/13
POINT CONCEPTION NOT AVBL
EAST SANTA BARBA 0000   68 69  240/  8/  8 1012.6F
SANTA MONICA BAY 0000   69 72  270/ 10/ 12 1012.2F         5/13



USA.gov is the U.S. government's official web portal to all federal, state and local government web resources and services.